Weather History for LIBQ - June, 2013

Change the Weather History Date:

Sunday, June 30, 2013

  Actual Average Record
Temperature  
Mean Temperature 50 °F -  
Max Temperature 57 °F - - ()
Min Temperature 42 °F - - ()
Degree Days  
Heating Degree Days 16    
Moisture  
Dew Point 44 °F    
Average Humidity 79    
Maximum Humidity 100    
Minimum Humidity 50    
Precipitation  
Precipitation 0.00 in - - ()
Sea Level Pressure  
Sea Level Pressure 30.05 in    
Wind  
Wind Speed 3 mph ()    
Max Wind Speed 5 mph    
Max Gust Speed -    
Visibility 7.8 miles    
Events      
T = Trace of Precipitation, MM = Missing Value Source: Averaged Metar Reports

Daily Weather History Graph

Daily Weather History Graph

Search for Another Location

Airport or City:

Trip Planner

Search our weather history database for the weather conditions in past years. The results will help you decide how hot, cold, wet, or windy it might be!

Date:

Astronomy

Jun. 30, 2013 Rise Set
Actual Time 5:30 AM CEST 8:25 PM CEST
Civil Twilight 4:58 AM CEST 8:57 PM CEST
Nautical Twilight 4:17 AM CEST 9:37 PM CEST
Astronomical Twilight 3:31 AM CEST 10:24 PM CEST
Moon 12:18 AM CEST (6/30) 1:23 PM CEST (6/30)
Length of Visible Light 15h 58m
Length of Day
14h 54m
Waning Gibbous, 48% of the Moon is Illuminated
Jun 30
Waning Gibbous
Jul 8
New
Jul 16
First Quarter
Jul 22
Full
Jul 29
Last Quarter

Hourly Weather History & Observations

Time (CEST) Temp. Windchill Dew Point Humidity Pressure Visibility Wind Dir Wind Speed Gust Speed Precip Events Conditions
12:55 AM 44.6 °F 43.1 °F 41.0 °F 87% 30.01 in 6.2 mi West 3.5 mph - N/A   Unknown
1:55 AM 44.6 °F 43.1 °F 41.0 °F 87% 30.01 in 6.2 mi West 3.5 mph - N/A   Scattered Clouds
2:00 AM 45 °F - 42 °F 85%  in 6 mi West 3.5 mph - -   Partly Cloudy
3:55 AM 44.6 °F 43.1 °F 41.0 °F 87% 30.01 in 6.2 mi West 3.5 mph - N/A   Scattered Clouds
4:55 AM 44.6 °F 43.1 °F 41.0 °F 87% 30.01 in 6.2 mi West 3.5 mph - N/A   Scattered Clouds
5:00 AM 45 °F - 42 °F 85%  in 6 mi West 3.5 mph - -   Partly Cloudy
5:55 AM 42.8 °F 40.1 °F 41.0 °F 93% 29.98 in - West 4.6 mph - N/A   Clear
6:55 AM 44.6 °F 42.2 °F 41.0 °F 87% 29.98 in - West 4.6 mph - N/A   Clear
7:55 AM 46.4 °F 44.3 °F 33.8 °F 62% 29.98 in - WNW 4.6 mph - N/A   Clear
8:00 AM 46 °F - 33 °F 50%  in 25 mi WNW 4.6 mph - -  
8:55 AM 48.2 °F - 35.6 °F 62% 30.01 in - NW 4.6 mph - N/A   Clear
9:55 AM 50.0 °F - 37.4 °F 62% 30.01 in - NW 4.6 mph - N/A   Clear
10:55 AM 51.8 °F - 39.2 °F 62% 30.04 in 6.2 mi West 4.6 mph - N/A   Partly Cloudy
11:00 AM 51 °F - 39 °F 54%  in 25 mi West 4.6 mph - -   Scattered Clouds
11:55 AM 51.8 °F - 44.6 °F 76% 30.04 in 6.2 mi West 4.6 mph - N/A   Partly Cloudy
12:55 PM 55.4 °F - 44.6 °F 67% 30.06 in 6.2 mi West 3.5 mph - N/A   Scattered Clouds
1:55 PM 55.4 °F - 42.8 °F 63% 30.06 in 6.2 mi West 3.5 mph - N/A   Scattered Clouds
2:00 PM 55 °F - 44 °F 55%  in 19 mi West 3.5 mph - -   Partly Cloudy
2:55 PM 55.4 °F - 44.6 °F 67% 30.06 in 6.2 mi West 3.5 mph - N/A   Mostly Cloudy
3:55 PM 55.4 °F - 46.4 °F 72% 30.06 in 6.2 mi West 4.6 mph - N/A   Mostly Cloudy
4:55 PM 53.6 °F - 48.2 °F 82% 30.06 in 6.2 mi West 3.5 mph - N/A   Scattered Clouds
5:00 PM 54 °F - 49 °F 77%  in 19 mi West 3.5 mph - -   Mostly Cloudy
5:55 PM 53.6 °F - 50.0 °F 88% 30.09 in 6.2 mi West 3.5 mph - N/A   Mostly Cloudy
6:55 PM 53.6 °F - 50.0 °F 88% 30.06 in 6.2 mi West 3.5 mph - N/A   Scattered Clouds
7:55 PM 55.4 °F - 51.8 °F 88% 30.09 in 6.2 mi West 3.5 mph - N/A   Scattered Clouds
8:00 PM 55 °F - 52 °F 85%  in 16 mi West 3.5 mph - -   Partly Cloudy
8:55 PM 50.0 °F - 50.0 °F 100% 30.09 in 6.2 mi NNW 3.5 mph - N/A   Scattered Clouds
9:55 PM 50.0 °F - 50.0 °F 100% 30.09 in 6.2 mi NNW 3.5 mph - N/A   Scattered Clouds
10:55 PM 48.2 °F - 48.2 °F 100% 30.12 in 6.2 mi NNW 4.6 mph - N/A   Scattered Clouds
11:00 PM 49 °F - 49 °F 100%  in 9 mi NNW 4.6 mph - -   Partly Cloudy
11:55 PM 48.2 °F - 48.2 °F 100% 30.12 in 6.2 mi North 4.6 mph - N/A   Scattered Clouds